Location: Unspecified
(42.9300°N, 71.1866°W)
Time: 15:11:20
(UTC-04:00)

Genesis I - Visible Passes

Search period start: 26 March 2015 00:00
Search period end: 05 April 2015 00:00
Orbit: 490 x 561 km, 64.5° (Epoch: 26 March)

Date Brightness Start Highest point End Pass type
(mag) Time Alt. Az. Time Alt. Az. Time Alt. Az.
26 Mar 6.4 19:54:56 10° NW 19:56:10 11° NNW 19:57:17 10° NNW visible
27 Mar 6.5 19:42:48 10° NW 19:43:33 10° NNW 19:44:10 10° NNW visible
03 Apr 6.6 23:11:17 10° NNW 23:11:31 11° NNW 23:11:31 11° NNW visible
04 Apr 6.4 22:58:27 10° NNW 22:59:04 13° N 22:59:04 13° N visible
